Location: ?????
(31.8092°N, 35.2590°E)
Time: 17:47:55
(UTC+00:00)

CARTOSAT-1 - Pass Details

Date: 20 June 2021
Orbit: 616 x 619 km, 97.8° (Epoch: 02 August)

Event Time Altitude Azimuth Distance (km) Brightness Sun altitude
Exits shadow 19:03:13 65° 76° (ENE) 679 3.5 -23.1°
Drops below altitude 10° 19:07:29 10° 355° (N) 1,986 6.9 -23.7°
Sets 19:09:41 0° 352° (N) 2,896 7.9 -24.0°
